STARLINK-1747 (46569 NORAD) Tracking and Keplerian Element Data

This shows tracking and keplerian element data for the satellite.

Feedback or suggestion? Click here.




ElementValue
Catalog46569
NameSTARLINK-1747
Epoch Orbit968
Epoch Day339.00002315
Epoch Year2020
RAAN154.9906
Inclination52.999
Eccentricity0.000248
Argument of Perigee25.5201
Mean Anonmoly241.7423
Mean Motion15.62740224
Decay Rate0.00017427
L11 46569U 20070AP 20339.00002315 .00017427 00000-0 19584-3 0 9998
L22 46569 52.9990 154.9906 0002480 25.5201 241.7423 15.62740224 9688

Live tracking and technical data element details for STARLINK-1747 (NORAD 46569). STARLINK-1747 can be tracked NOW for your location showing map with azimuth and elevation plus other details from your city location.

Track the satellite on the map from your city or location and see movement details for azimuth, elevation, latitude, longitude, range, height, and movement on the map or in text.







IsCatalogInMostPopularTable: catalog: 46569, numindb: 17
Update: records affected: 1



GetName: 46569 STARLINK-1747

Hit Count: updated at: Sun, 06 Dec 2020 01:50:12 GMT